ENCDG LIBD-LICA

Flight info

Callsign ENCDG
Flight time N/A
Altitude 23000
Route LUXIL DCT ARBUM
Aircraft DH8D/M-SDE2E3FGRY/H

Departure

Time 2026-05-09 15:06
Airport Bari Karol Wojtyła International Airport (LIBD)

Arrival

Time N/A
Airport Lamezia Terme Sant'Eufemia International Airport (LICA)
Time Latitude Longitude Altitude Speed Heading
2026-05-09 14:42 41.13744 16.76973 136 ft 0 kts 194°
2026-05-09 14:50 41.13757 16.76977 136 ft 2 kts 194°
2026-05-09 14:51 41.13772 16.76982 136 ft 2 kts 194°
2026-05-09 14:51 41.13786 16.76987 135 ft 2 kts 202°
2026-05-09 14:51 41.13799 16.76998 135 ft 2 kts 226°
2026-05-09 14:51 41.13806 16.77014 135 ft 1 kts 248°
2026-05-09 14:52 41.13808 16.77018 135 ft 0 kts 250°
2026-05-09 14:53 41.13799 16.76987 135 ft 6 kts 250°
2026-05-09 14:53 41.13784 16.76930 136 ft 6 kts 250°
2026-05-09 14:54 41.13770 16.76877 136 ft 5 kts 257°
2026-05-09 14:54 41.13771 16.76834 137 ft 4 kts 284°
2026-05-09 14:54 41.13792 16.76790 137 ft 6 kts 316°
2026-05-09 14:54 41.13838 16.76754 136 ft 8 kts 319°
2026-05-09 14:55 41.13844 16.76691 137 ft 7 kts 250°
2026-05-09 14:55 41.13827 16.76629 139 ft 7 kts 250°
2026-05-09 14:55 41.13811 16.76567 140 ft 7 kts 250°
2026-05-09 14:55 41.13792 16.76508 142 ft 7 kts 249°
2026-05-09 14:56 41.13774 16.76440 142 ft 8 kts 251°
2026-05-09 14:56 41.13751 16.76362 144 ft 9 kts 249°
2026-05-09 14:56 41.13714 16.76230 147 ft 18 kts 250°
2026-05-09 14:56 41.13669 16.76076 150 ft 16 kts 249°
2026-05-09 14:57 41.13631 16.75945 153 ft 13 kts 249°
2026-05-09 14:57 41.13604 16.75844 155 ft 10 kts 250°
2026-05-09 14:57 41.13582 16.75765 157 ft 7 kts 250°
2026-05-09 14:57 41.13563 16.75695 157 ft 8 kts 250°
2026-05-09 14:58 41.13541 16.75621 158 ft 10 kts 249°
2026-05-09 14:58 41.13491 16.75442 162 ft 24 kts 249°
2026-05-09 14:58 41.13428 16.75220 169 ft 23 kts 250°
2026-05-09 14:58 41.13379 16.75044 174 ft 17 kts 250°
2026-05-09 14:59 41.13345 16.74922 178 ft 10 kts 251°
2026-05-09 14:59 41.13354 16.74859 179 ft 6 kts 301°
2026-05-09 14:59 41.13372 16.74820 180 ft 3 kts 300°
2026-05-09 14:59 41.13375 16.74814 180 ft 0 kts 301°
2026-05-09 15:02 41.13385 16.74791 181 ft 0 kts 301°
2026-05-09 15:02 41.13411 16.74739 182 ft 16 kts 319°
2026-05-09 15:03 41.13487 16.74778 181 ft 0 kts 69°
2026-05-09 15:03 41.13490 16.74785 181 ft 6 kts 68°
2026-05-09 15:03 41.13567 16.75052 172 ft 74 kts 69°
2026-05-09 15:04 41.13842 16.76033 155 ft 145 kts 69°
2026-05-09 15:04 41.14223 16.77394 435 ft 166 kts 68°
2026-05-09 15:06 41.17387 16.89047 5304 ft 209 kts 64°
2026-05-09 15:06 41.17975 16.90827 6045 ft 213 kts 64°
2026-05-09 15:06 41.18544 16.92612 6804 ft 215 kts 65°
2026-05-09 15:06 41.19109 16.94436 7544 ft 219 kts 65°
2026-05-09 15:07 41.19680 16.96319 8290 ft 222 kts 65°
2026-05-09 15:07 41.20244 16.98205 9010 ft 225 kts 65°
2026-05-09 15:07 41.20815 17.00134 9730 ft 227 kts 64°
2026-05-09 15:07 41.21383 17.02066 10436 ft 230 kts 65°
2026-05-09 15:08 41.21958 17.04036 11135 ft 228 kts 64°
2026-05-09 15:08 41.22964 17.07544 12862 ft 190 kts 64°
2026-05-09 15:08 41.23414 17.09128 13406 ft 181 kts 63°
2026-05-09 15:09 41.23854 17.10676 13835 ft 176 kts 63°
2026-05-09 15:10 41.22937 17.20258 15150 ft 221 kts 171°
2026-05-09 15:11 41.21398 17.20731 15221 ft 237 kts 173°
2026-05-09 15:11 41.19711 17.21143 15268 ft 254 kts 175°
2026-05-09 15:11 41.17911 17.21454 15392 ft 267 kts 179°
2026-05-09 15:11 41.16029 17.21643 15679 ft 273 kts 182°
2026-05-09 15:12 41.14134 17.21691 16072 ft 273 kts 186°
2026-05-09 15:12 41.12245 17.21598 16436 ft 275 kts 189°
2026-05-09 15:12 41.10350 17.21360 16827 ft 275 kts 193°
2026-05-09 15:12 41.08461 17.20976 17229 ft 273 kts 197°
2026-05-09 15:13 41.06604 17.20455 17560 ft 274 kts 200°
2026-05-09 15:13 41.04776 17.19794 17946 ft 272 kts 204°
2026-05-09 15:13 41.02964 17.18990 18261 ft 273 kts 208°
2026-05-09 15:13 41.01226 17.18071 18629 ft 271 kts 211°
2026-05-09 15:14 40.99514 17.17015 18927 ft 271 kts 214°
2026-05-09 15:14 40.97856 17.15836 19258 ft 270 kts 218°
2026-05-09 15:14 40.96255 17.14541 19580 ft 270 kts 221°
2026-05-09 15:14 40.94721 17.13136 19927 ft 266 kts 225°
2026-05-09 15:15 40.93277 17.11655 20233 ft 265 kts 228°
2026-05-09 15:15 40.91874 17.10043 20498 ft 265 kts 231°
2026-05-09 15:15 40.90565 17.08363 20763 ft 263 kts 234°
2026-05-09 15:15 40.90093 17.07709 20857 ft 262 kts 236°